Regional Weather Roundup
Issued by NWS

Home | Current Version | Previous Version | Graphics & Text | Print | Product List | Glossary On
Versions: 1 2 3 4 5 6 7 8 9 10 11 12 13 14 15 16 17 18 19 20 21 22 23 24 25 26 27 28 29 30 31 32 33 34 35 36 37 38 39 40 41 42 43 44 45 46 47 48 49 50
000
ASUS45 KTFX 280510
RWRMT
MONTANA REGIONAL WEATHER ROUNDUP
NATIONAL WEATHER SERVICE GREAT FALLS MT
1100 PM MDT WED JUL 27 2016

NOTE: "FAIR" INDICATES FEW OR NO CLOUDS BELOW 12000 FEET WITH NO
SIGNIFICANT WEATHER AND/OR OBSTRUCTIONS TO VISIBILITY.

MTZ001>007-043-280600-
WEST OF THE DIVIDE

CITY           SKY/WX    TMP DP  RH WIND       PRES   REMARKS
KALISPELL      LGT RAIN  68  58  70 E14       30.10F
MISSOULA       PTCLDY    74  46  36 N5        30.09R
BUTTE          PTCLDY    69  45  41 SW6       30.24R
MULLAN PASS    CLEAR     65  44  46 NW5       30.28S
DEER LODGE       N/A     66  48  52 NW6       30.23R
EUREKA           N/A     66  55  68 CALM      30.15R
HAMILTON         N/A     66  52  59 CALM      30.12R
LIBBY            N/A     75  52  43 N3        30.10R
PLAINS           N/A     68  60  75 CALM      30.09S
RONAN            N/A     70  55  58 N2        30.13S
$$

MTZ008-052>055-280600-
SOUTHWEST MONTANA

CITY           SKY/WX    TMP DP  RH WIND       PRES   REMARKS
BOZEMAN        CLOUDY    74  50  42 W7        30.16R
DILLON         CLOUDY    66  50  56 E21G29    30.20R
W YELLOWSTONE  CLOUDY    63  39  42 CALM      30.28S
ENNIS          CLOUDY    66  50  55 N21       30.31R
THREE FORKS      N/A     68  26  20 CALM      30.15R
TWIN BRIDGES     N/A     73  48  41 NE8       30.13R
$$

MTZ009-010-012-014-046-048-049-054-280600-
EAST SLOPES AND CENTRAL MONTANA

CITY           SKY/WX    TMP DP  RH WIND       PRES   REMARKS
CUT BANK       CLOUDY    61  57  87 SW8       30.23R
GREAT FALLS    CLOUDY    64  52  64 NE18G26   30.21S
MALMSTROM AFB  LGT RAIN  62  55  77 N20G30    30.21R
HELENA         CLOUDY    70  48  45 W8        30.15R
CHOTEAU          N/A     61  54  77 CALM      30.26F
CONRAD           N/A     59  58  96 N5        30.23R
$$

MTZ011-013-016-021-045-047-050-051-280600-
NORTH CENTRAL MONTANA

CITY           SKY/WX    TMP DP  RH WIND       PRES   REMARKS
HAVRE          CLOUDY    63  60  90 S3        30.18R
LEWISTOWN      CLEAR     62  53  72 E7        30.23R
N BAR RANCH      N/A     57  54  88 NW5       30.26S
CHINOOK          N/A     63  61  94 CALM      30.18R
$$

MTZ017>020-022>027-061-062-280600-
NORTHEAST MONTANA

CITY           SKY/WX    TMP DP  RH WIND       PRES   REMARKS
GLASGOW        PTCLDY    62  59  90 VRB7      30.15S
JORDAN           N/A     63  59  87 CALM      30.15R
SIDNEY         CLEAR     63  61  93 N6        30.13F
WOLF POINT     PTCLDY    66  59  78 NE5       30.15R
PLENTYWOOD       N/A     61  57  88 CALM      30.18R
SCOBEY           N/A     57  46  66 CALM      30.16R
$$

MTZ028>42-056>058-280600-
SOUTHCENTRAL AND SOUTHEAST MONTANA

CITY           SKY/WX    TMP DP  RH WIND       PRES   REMARKS
BAKER          MOCLDY    65  59  81 SE10      30.14F
BILLINGS       MOCLDY    69  57  65 NE10      30.16F
LIVINGSTON     CLOUDY    70  51  51 E12       30.19R
MILES CITY     CLEAR     68  61  78 N3        30.11R
EKALAKA          N/A     62  55  77 SE12      30.12F
FORSYTH          N/A     64  59  82 CALM      30.12S
LAUREL           N/A     69  53  56 NE2       30.15R
ROUNDUP          N/A     65  56  72 CALM      30.10S
$$

REGIONAL REPORTS...DAKOTAS

CITY           SKY/WX    TMP DP  RH WIND       PRES   REMARKS
WILLISTON      CLOUDY    64  60  87 N3        30.16R
MINOT          CLOUDY    67  58  72 N6        30.15R
DICKINSON      CLOUDY    61  60  97 E5        30.14S
BEACH          MOCLDY    61  61 100 E7        30.17S
CROSBY           N/A     57  57 100 CALM      30.19F FOG
WATFORD CITY     N/A    N/A N/A N/A MISG        N/A
BISMARCK       CLOUDY    66  62  87 E7        30.13S
GRAND FORKS    CLEAR     63  58  83 N9        30.08F
FARGO          CLOUDY    65  59  81 N9        30.05S
BUFFALO SD       N/A     65  59  81 CALM      30.12S
RAPID CITY     CLOUDY    62  57  83 SE3       30.15F
$$

REGIONAL REPORTS...WYOMING/IDAHO/WASHINGTON

CITY           SKY/WX    TMP DP  RH WIND       PRES   REMARKS
GILLETTE       MOCLDY    69  56  62 SE14      30.17R
SHERIDAN       CLOUDY    70  54  56 NE21G29   30.17R THUNDER
BUFFALO WY     LGT RAIN  69  57  65 W16       30.24R
CODY           CLOUDY    68  50  52 NW9       30.22R
YELLOWSTONE LA   N/A     49  44  83 NW6       30.38S
IDAHO FALLS    CLEAR     75  39  27 SW9       30.06R
SALMON         CLEAR     70  43  37 SE6       30.06R
BOISE          CLEAR     84  46  26 W5        29.95R
SPOKANE        PTCLDY    81  44  27 NW6       30.04R
$$

REGIONAL REPORTS...ALBERTA

CITY           SKY/WX    TMP DP  RH WIND       PRES   REMARKS
EDMONTON       PTCLDY    63  55  77 SW6       30.14R
CALGARY        MOCLDY    61  54  77 N9        30.21S
LETHBRIDGE     CLOUDY    61  57  88 SW3       30.19R
MEDICINE HAT   CLEAR     66  57  72 SE6       30.15R
WATERTON GATE    N/A     52  50  93 W1          N/A
CARDSTON         N/A     59  52  77 S1          N/A
MILK RIVER       N/A     63  59  88 N5          N/A
ONEFOUR          N/A     59  55  88 E6          N/A
$$

REGIONAL REPORTS...SASKATCHEWAN

CITY           SKY/WX    TMP DP  RH WIND       PRES   REMARKS
SWIFT CURRENT  CLEAR     61  54  77 E7        30.18S
REGINA         CLEAR     61  55  82 E7        30.18R
SASKATOON      MOCLDY    64  55  72 S6        30.17R
CYPRESS HILLS    N/A     57  52  82 S2          N/A
VAL MARIE        N/A     55  54  94 NE5         N/A
ROCKGLEN         N/A     57  52  82 SE2         N/A
ASSINIBOIA       N/A     64  63  94 S1          N/A
$$



USA.gov is the U.S. government's official web portal to all federal, state and local government web resources and services.